World > North America > United States > Minnesota
Hourly Weather in Balaton, MinnesotaBalaton, Minnesota Hourly Weather

Balaton, MN Hourly Weather

Hourly Weather Balaton, MinnesotaHourly Weather in Balaton, MN
Lat: 44.23N, Lon: 95.87W  ICAO: KTKC
Web Search

Helpful Tip: You can add this page to Bookmarks by pressing the Ctrl key & d key at the same time. Mac users press command & d.

Feedback

Balaton Hourly Weather

36 Hour Weather Scroll   °F Click to change Balaton hourly weather to Imperial units.Click to change Balaton hourly weather to Metric units. °C
Currently, Overcast, temperature is 36°F2°C, dew point 24.4°F-4°C, humidity 62%. Wind direction is WNW at 12 mph19 km/h with visibility of 10 mile(s) mi16 km. Barometric pressure is 29.89 in1012 mb.

Jan 27
MIDNIGHT

Jan 27
1:00 AM

Jan 27
2:00 AM

Jan 27
3:00 AM

Jan 27
4:00 AM

Jan 27
5:00 AM

Jan 27
6:00 AM

Jan 27
7:00 AM

Jan 27
8:00 AM

Jan 27
9:00 AM

Jan 27
10:00 AM

Jan 27
11:00 AM

Jan 27
NOON

Jan 27
1:00 PM

Jan 27
2:00 PM

Jan 27
3:00 PM

Jan 27
4:00 PM

Jan 27
5:00 PM

Jan 27
6:00 PM

Jan 27
7:00 PM

Jan 27
8:00 PM

Jan 27
9:00 PM

Jan 27
10:00 PM

Jan 27
11:00 PM

Jan 28
MIDNIGHT

Jan 28
1:00 AM

Jan 28
2:00 AM

Jan 28
3:00 AM

Jan 28
4:00 AM

Jan 28
5:00 AM

Jan 28
6:00 AM

Jan 28
7:00 AM

Jan 28
8:00 AM

Jan 28
9:00 AM

Jan 28
10:00 AM

Jan 28
11:00 AM
Cloudy Cloudy Cloudy Cloudy Cloudy Cloudy Cloudy Cloudy Cloudy Cloudy Cloudy Cloudy Cloudy Cloudy Mostly Clear Mostly Clear Mostly Clear Mostly Clear Mostly Clear Mostly Clear Partly Cloudy Partly Cloudy Partly Cloudy Mostly Clear Mostly Clear Mostly Clear Mostly Clear Mostly Clear Mostly Clear Mostly Cloudy Mostly Cloudy Mostly Cloudy Cloudy Cloudy Cloudy Mostly Cloudy
Cloudy Cloudy Cloudy Cloudy Cloudy Cloudy Cloudy Cloudy Cloudy Cloudy Cloudy Cloudy Cloudy Cloudy Mostly Clear Mostly Clear Mostly Clear Mostly Clear Mostly Clear Mostly Clear Partly Cloudy Partly Cloudy Partly Cloudy Mostly Clear Mostly Clear Mostly Clear Mostly Clear Mostly Clear Mostly Clear Mostly Cloudy Mostly Cloudy Mostly Cloudy Cloudy Cloudy Cloudy Mostly Cloudy
26°F-3°C 26°F-3°C 25°F-4°C 25°F-4°C 24°F-4°C 24°F-4°C 23°F-5°C 22°F-6°C 21°F-6°C 20°F-7°C 18°F-8°C 16°F-9°C 14°F-10°C 13°F-11°C 11°F-12°C 10°F-12°C 8°F-13°C 5°F-15°C 3°F-16°C 3°F-16°C 2°F-17°C 2°F-17°C 2°F-17°C 1°F-17°C 1°F-17°C 1°F-17°C °F-18°C °F-18°C °F-18°C °F-18°C °F-18°C 1°F-17°C 3°F-16°C 4°F-16°C 8°F-13°C 13°F-11°C
- - - - - - - - - - - - - - - - - - - - - - - - - - - - - - - - - - - -
0% 0% 0% 0% 0% 0% 0% 0% 0% 0% 0% 0% 0% 0% 0% 0% 0% 0% 0% 0% 0% 0% 0% 0% 0% 0% 0% 0% 0% 0% 0% 0% 0% 0% 0% 0%
22°F-6°C 21°F-6°C 21°F-6°C 20°F-7°C 20°F-7°C 19°F-7°C 19°F-7°C 18°F-8°C 18°F-8°C 17°F-8°C 15°F-9°C 12°F-11°C 10°F-12°C 8°F-13°C 6°F-14°C 4°F-16°C 2°F-17°C °F-18°C -2°F-19°C -4°F-20°C -6°F-21°C -6°F-21°C -7°F-22°C -8°F-22°C -7°F-22°C -8°F-22°C -8°F-22°C -7°F-22°C -8°F-22°C -8°F-22°C -7°F-22°C -7°F-22°C -6°F-21°C -4°F-20°C -2°F-19°C 2°F-17°C
85% 81% 84% 81% 84% 81% 84% 84% 88% 88% 88% 84% 84% 80% 80% 76% 76% 79% 79% 72% 68% 68% 65% 65% 68% 65% ** ** ** ** ** 68% 65% 69% 63% 61%
W W WNW NW NW NW NW NW NW NW NW NNW NNW NNW NNW NNW NNW NNW NNW NW NW WNW W W SSW SSW SSW SSW SSW SW SW SW SW SW SW SW
12 mph 12 mph 12 mph 12 mph 12 mph 9 mph 9 mph 9 mph 13 mph 13 mph 13 mph 15 mph 15 mph 15 mph 11 mph 11 mph 11 mph 10 mph 10 mph 10 mph 7 mph 7 mph 7 mph 7 mph 7 mph 7 mph 7 mph 7 mph 7 mph 7 mph 7 mph 7 mph 5 mph 5 mph 5 mph 4 mph
10 mi16 km 10 mi16 km 10 mi16 km 10 mi16 km 10 mi16 km 10 mi16 km 10 mi16 km 10 mi16 km 10 mi16 km 10 mi16 km 10 mi16 km 10 mi16 km 10 mi16 km 10 mi16 km 10 mi16 km 10 mi16 km 10 mi16 km 10 mi16 km 10 mi16 km 10 mi16 km 10 mi16 km 10 mi16 km 10 mi16 km 10 mi16 km 10 mi16 km 10 mi16 km 10 mi16 km 10 mi16 km 10 mi16 km 10 mi16 km 10 mi16 km 10 mi16 km 10 mi16 km 10 mi16 km 10 mi16 km 10 mi16 km
Hour (CST)
Weather
Clouds
Temperature
Precip. Type
POP
Dewpoint
Humidity
Wind Direction
Wind Speed
Visibility
POP = Probability of Precipitation. ** Indicates missing data/values from model statistics.

24 Hour Forecast

Rest of Tonight - Breezy. Not as cold. Mostly cloudy. Patchy blowing snow after midnight. Lows around 17. West winds 15 to 25 mph becoming northwest 15 to 20 mph after midnight.
Thursday - Colder. Mostly cloudy in the morning then becoming partly cloudy. Chance of flurries through the day. Patchy blowing snow in the afternoon. Highs around 22. Temperatures falling in the afternoon. Northwest winds 15 to 20 mph with gusts to around 30 mph.

48 Hour Forecast API Feed


Thu, Jan 27
Midnight

Thu, Jan 27
1:00 am

Thu, Jan 27
2:00 am

Thu, Jan 27
3:00 am

Thu, Jan 27
4:00 am

Thu, Jan 27
5:00 am

Thu, Jan 27
6:00 am

Thu, Jan 27
7:00 am

Thu, Jan 27
8:00 am

Thu, Jan 27
9:00 am

Thu, Jan 27
10:00 am

Thu, Jan 27
11:00 am

Thu, Jan 27
Noon

Thu, Jan 27
1:00 pm

Thu, Jan 27
2:00 pm

Thu, Jan 27
3:00 pm

Thu, Jan 27
4:00 pm

Thu, Jan 27
5:00 pm

Thu, Jan 27
6:00 pm

Thu, Jan 27
7:00 pm

Thu, Jan 27
8:00 pm

Thu, Jan 27
9:00 pm

Thu, Jan 27
10:00 pm

Thu, Jan 27
11:00 pm

Fri, Jan 28
Midnight

Fri, Jan 28
1:00 am

Fri, Jan 28
2:00 am

Fri, Jan 28
3:00 am

Fri, Jan 28
4:00 am

Fri, Jan 28
5:00 am

Fri, Jan 28
6:00 am

Fri, Jan 28
7:00 am

Fri, Jan 28
8:00 am

Fri, Jan 28
9:00 am

Fri, Jan 28
10:00 am

Fri, Jan 28
11:00 am

Fri, Jan 28
Noon

Fri, Jan 28
1:00 pm

Fri, Jan 28
2:00 pm

Fri, Jan 28
3:00 pm

Fri, Jan 28
4:00 pm

Fri, Jan 28
5:00 pm

Fri, Jan 28
6:00 pm

Fri, Jan 28
7:00 pm

Fri, Jan 28
8:00 pm

Fri, Jan 28
9:00 pm

Fri, Jan 28
10:00 pm

Fri, Jan 28
11:00 pm
Partly CloudyPartly CloudyPartly CloudyCloudyCloudyCloudyCloudyOvercastCloudyCloudyOvercastOvercastOvercastCloudyPartly CloudyPartly CloudyPartly CloudyCloudyCloudyCloudyPartly CloudyFreezing FogFreezing FogFreezing FogFreezing FogFreezing FogFreezing FogFreezing FogFreezing FogClearClearClearPartly CloudyPartly CloudyCloudyCloudyCloudySunnySunnyCloudyPartly CloudySunnyClearClearClearClearPartly CloudyClear
Partly cloudy Partly cloudy Partly cloudy Cloudy Cloudy Cloudy Cloudy Overcast Cloudy Cloudy Overcast Overcast Overcast Cloudy Partly cloudy Partly cloudy Partly cloudy Cloudy Cloudy Cloudy Partly cloudy Freezing fog Freezing fog Freezing fog Freezing fog Freezing fog Freezing fog Freezing fog Freezing fog Clear Clear Clear Partly cloudy Partly cloudy Cloudy Cloudy Cloudy Sunny Sunny Cloudy Partly cloudy Sunny Clear Clear Clear Clear Partly cloudy Clear
25°F
-4°C
26°F
-3°C
26°F
-3°C
26°F
-3°C
25°F
-4°C
23°F
-5°C
21°F
-6°C
21°F
-6°C
20°F
-7°C
18°F
-8°C
18°F
-8°C
17°F
-8°C
17°F
-8°C
16°F
-9°C
14°F
-10°C
12°F
-11°C
10°F
-12°C
8°F
-13°C
5°F
-15°C
0°F
-18°C
-3°F
-19°C
-6°F
-21°C
-7°F
-21°C
-8°F
-22°C
-10°F
-23°C
-11°F
-24°C
-10°F
-24°C
-11°F
-24°C
-10°F
-23°C
-8°F
-22°C
-7°F
-22°C
-5°F
-21°C
-3°F
-19°C
-0°F
-18°C
3°F
-16°C
8°F
-13°C
13°F
-11°C
17°F
-9°C
19°F
-7°C
21°F
-6°C
22°F
-6°C
20°F
-6°C
15°F
-10°C
11°F
-11°C
11°F
-12°C
12°F
-11°C
13°F
-11°C
14°F
-10°C
20°F
-7°C
22°F
-5°C
23°F
-5°C
23°F
-5°C
21°F
-6°C
19°F
-7°C
19°F
-8°C
19°F
-8°C
17°F
-9°C
15°F
-9°C
15°F
-9°C
15°F
-9°C
15°F
-10°C
13°F
-11°C
10°F
-12°C
9°F
-13°C
7°F
-14°C
5°F
-15°C
3°F
-16°C
-1°F
-18°C
-3°F
-20°C
-6°F
-21°C
-7°F
-21°C
-8°F
-22°C
-10°F
-23°C
-11°F
-24°C
-10°F
-24°C
-11°F
-24°C
-10°F
-24°C
-10°F
-23°C
-9°F
-23°C
-8°F
-22°C
-6°F
-21°C
-4°F
-20°C
-0°F
-18°C
5°F
-15°C
9°F
-13°C
13°F
-11°C
15°F
-9°C
17°F
-8°C
19°F
-8°C
18°F
-8°C
13°F
-11°C
10°F
-12°C
8°F
-13°C
9°F
-13°C
10°F
-12°C
11°F
-12°C
29.94 in
1014 mb
29.97 in
1015 mb
30 in
1016 mb
30.03 in
1017 mb
30.06 in
1018 mb
30.09 in
1019 mb
30.15 in
1021 mb
30.18 in
1022 mb
30.24 in
1024 mb
30.27 in
1025 mb
30.33 in
1027 mb
30.36 in
1028 mb
30.42 in
1030 mb
30.45 in
1031 mb
30.47 in
1032 mb
30.5 in
1033 mb
30.5 in
1033 mb
30.53 in
1034 mb
30.56 in
1035 mb
30.59 in
1036 mb
30.65 in
1038 mb
30.65 in
1038 mb
30.68 in
1039 mb
30.68 in
1039 mb
30.68 in
1039 mb
30.68 in
1039 mb
30.68 in
1039 mb
30.65 in
1038 mb
30.62 in
1037 mb
30.59 in
1036 mb
30.56 in
1035 mb
30.53 in
1034 mb
30.53 in
1034 mb
30.5 in
1033 mb
30.47 in
1032 mb
30.45 in
1031 mb
30.42 in
1030 mb
30.39 in
1029 mb
30.36 in
1028 mb
30.33 in
1027 mb
30.3 in
1026 mb
30.27 in
1025 mb
30.3 in
1026 mb
30.3 in
1026 mb
30.3 in
1026 mb
30.27 in
1025 mb
30.24 in
1024 mb
30.21 in
1023 mb
82%85%87%86%84%84%89%91%87%87%90%92%91%88%86%87%88%89%91%96%98%99%100%100%100%100%100%100%98%94%91%88%85%85%85%85%84%85%86%86%87%90%92%92%89%87%87%88%
WWNWWNWNWNWNWNWNWNWNNWNNWNNWNNWNNWNNWNNWNNWNNWNNWNNWNNWNWNWNWWNWWWWSWWSWWSWSWWSWWSWWSWWSWWSWWSWWSWWSWWSWSWSSWSSSSWSSWSSWSSW
15 mph
24 km/h
16 mph
26 km/h
16 mph
26 km/h
16 mph
26 km/h
16 mph
25 km/h
15 mph
24 km/h
12 mph
19 km/h
12 mph
19 km/h
14 mph
22 km/h
14 mph
23 km/h
14 mph
22 km/h
14 mph
22 km/h
15 mph
23 km/h
15 mph
24 km/h
15 mph
24 km/h
14 mph
23 km/h
13 mph
21 km/h
12 mph
19 km/h
10 mph
17 km/h
8 mph
13 km/h
8 mph
13 km/h
6 mph
10 km/h
5 mph
8 km/h
4 mph
6 km/h
4 mph
6 km/h
4 mph
7 km/h
5 mph
9 km/h
5 mph
9 km/h
6 mph
10 km/h
7 mph
11 km/h
7 mph
12 km/h
8 mph
12 km/h
8 mph
12 km/h
8 mph
12 km/h
8 mph
13 km/h
8 mph
13 km/h
9 mph
14 km/h
9 mph
14 km/h
9 mph
14 km/h
8 mph
13 km/h
6 mph
10 km/h
5 mph
8 km/h
5 mph
8 km/h
6 mph
9 km/h
7 mph
11 km/h
7 mph
12 km/h
7 mph
12 km/h
8 mph
12 km/h
0%0%0%0%0%0%0%0%0%0%0%0%0%0%0%0%0%0%0%0%0%0%0%0%0%0%0%0%0%0%0%0%0%0%0%0%0%0%0%0%0%0%0%0%0%0%0%0%
6 mi
10 km
6 mi
10 km
6 mi
10 km
6 mi
10 km
6 mi
10 km
6 mi
10 km
6 mi
10 km
6 mi
10 km
6 mi
10 km
6 mi
10 km
6 mi
10 km
6 mi
10 km
6 mi
10 km
6 mi
10 km
6 mi
10 km
6 mi
10 km
6 mi
10 km
6 mi
10 km
6 mi
10 km
6 mi
10 km
6 mi
10 km
0 mi
0 km
0 mi
0 km
0 mi
0 km
0 mi
0 km
0 mi
0 km
0 mi
0 km
0 mi
0 km
0 mi
0 km
6 mi
10 km
6 mi
10 km
6 mi
10 km
6 mi
10 km
6 mi
10 km
6 mi
10 km
6 mi
10 km
6 mi
10 km
6 mi
10 km
6 mi
10 km
6 mi
10 km
6 mi
10 km
6 mi
10 km
6 mi
10 km
6 mi
10 km
6 mi
10 km
6 mi
10 km
6 mi
10 km
6 mi
10 km

Day/Time
Weather
Condition
Temperature
Dew Point
Pressure
Humidity
Wind Direction
Wind Speed
Prob Precip %
Visibility
Prob Precip % = Probability of Precipitation.